This is the latest recevied weather packets stored in our database for station/object N8JE-13. If no packets are shown the sender has not sent any weather packets the latest 10 day(s).
| Time | Temp. | Humidity | Pressure | Rain* | Wind** | Luminosity | Snow |
|---|---|---|---|---|---|---|---|
| 1778254851 | 16.67° C | 52% | 1013.1 hPa | 0 mm | - | - | - |
| 1778254552 | 16.67° C | 54% | 1013.1 hPa | 0 mm | - | - | - |
| 1778254252 | 16.67° C | 54% | 1013.1 hPa | 0 mm | - | - | - |
| 1778253952 | 16.67° C | 53% | 1013.1 hPa | 0 mm | - | - | - |
| 1778253651 | 17.22° C | 52% | 1013.1 hPa | 0 mm | - | - | - |
| 1778253351 | 16.67° C | 54% | 1013.1 hPa | 0 mm | - | - | - |
| 1778253051 | 16.67° C | 54% | 1013.1 hPa | 0 mm | - | - | - |
| 1778252751 | 16.11° C | 56% | 1013.3 hPa | 0 mm | - | - | - |
| 1778252453 | 16.11° C | 55% | 1013.4 hPa | 0 mm | - | - | - |
| 1778252152 | 15.56° C | 57% | 1013.4 hPa | 0 mm | - | - | - |
| 1778251851 | 15° C | 56% | 1013.5 hPa | 0 mm | - | - | - |
| 1778251551 | 14.44° C | 59% | 1013.6 hPa | 0 mm | - | - | - |
| 1778251251 | 14.44° C | 60% | 1013.6 hPa | 0 mm | - | - | - |
| 1778250952 | 13.89° C | 58% | 1013.8 hPa | 0 mm | - | - | - |
| 1778250652 | 13.89° C | 60% | 1013.8 hPa | 0 mm | - | - | - |
| 1778250351 | 13.89° C | 59% | 1013.8 hPa | 0 mm | - | - | - |
| 1778250051 | 13.33° C | 61% | 1013.8 hPa | 0 mm | - | - | - |
| 1778249751 | 13.33° C | 60% | 1013.8 hPa | 0 mm | - | - | - |
| 1778249452 | 13.33° C | 62% | 1013.9 hPa | 0 mm | - | - | - |
| 1778249152 | 12.78° C | 64% | 1013.9 hPa | 0 mm | - | - | - |
| 1778248852 | 12.22° C | 62% | 1014 hPa | 0 mm | - | - | - |
| 1778248552 | 12.22° C | 63% | 1014.1 hPa | 0 mm | - | - | - |
| 1778248252 | 11.67° C | 64% | 1014.1 hPa | 0 mm | - | - | - |
| 1778247952 | 11.67° C | 65% | 1014 hPa | 0 mm | - | - | - |
| 1778247652 | 11.67° C | 65% | 1013.9 hPa | 0 mm | - | - | - |
* Rain latest hour (hover to see other rain measurements)
** Current wind speed in m/s (hover to see current wind gust speed)